TimeCDT,TemperatureF,Dew PointF,Humidity,Sea Level PressureIn,VisibilityMPH,Wind Direction,Wind SpeedMPH,Gust SpeedMPH,PrecipitationIn,Events,Conditions,WindDirDegrees,DateUTC
12:15 AM,59.0,53.6,82,29.96,10.0,SE,8.1,-,N/A,,Clear,140,2012-10-22 05:15:00
12:35 AM,59.0,53.6,82,29.96,10.0,SE,5.8,-,N/A,,Clear,130,2012-10-22 05:35:00
12:55 AM,54.0,50.7,89,29.96,10.0,Calm,Calm,-,N/A,,Clear,0,2012-10-22 05:55:00
1:15 AM,54.0,50.7,89,29.96,10.0,East,4.6,-,N/A,,Clear,80,2012-10-22 06:15:00
1:35 AM,54.9,51.3,88,29.96,10.0,ENE,4.6,-,N/A,,Scattered Clouds,70,2012-10-22 06:35:00
1:55 AM,56.5,52.2,85,29.95,10.0,ESE,3.5,-,N/A,,Mostly Cloudy,110,2012-10-22 06:55:00
2:15 AM,54.3,50.4,86,29.95,10.0,Calm,Calm,-,N/A,,Scattered Clouds,0,2012-10-22 07:15:00
2:35 AM,54.0,50.7,89,29.95,10.0,ENE,4.6,-,N/A,,Scattered Clouds,70,2012-10-22 07:35:00
2:55 AM,55.2,51.6,88,29.95,10.0,East,4.6,-,N/A,,Mostly Cloudy,90,2012-10-22 07:55:00
3:15 AM,54.0,51.1,90,29.95,10.0,ENE,4.6,-,N/A,,Overcast,60,2012-10-22 08:15:00
3:35 AM,54.0,51.1,90,29.95,10.0,ENE,4.6,-,N/A,,Mostly Cloudy,60,2012-10-22 08:35:00
3:55 AM,54.0,51.3,91,29.93,7.0,ENE,4.6,-,N/A,,Scattered Clouds,60,2012-10-22 08:55:00
4:15 AM,53.6,51.8,94,29.93,7.0,ENE,5.8,-,N/A,,Clear,70,2012-10-22 09:15:00
4:55 AM,51.8,50.0,94,29.92,7.0,Calm,Calm,-,N/A,,Clear,0,2012-10-22 09:55:00
5:15 AM,51.8,50.0,94,29.92,5.0,ENE,4.6,-,N/A,,Clear,60,2012-10-22 10:15:00
5:35 AM,52.5,50.4,92,29.94,5.0,Calm,Calm,-,N/A,,Mostly Cloudy,0,2012-10-22 10:35:00
5:55 AM,54.0,51.8,92,29.94,7.0,East,3.5,-,N/A,,Overcast,80,2012-10-22 10:55:00
6:15 AM,54.0,51.8,92,29.94,7.0,ENE,3.5,-,N/A,,Overcast,60,2012-10-22 11:15:00
6:35 AM,54.0,51.8,92,29.94,7.0,East,4.6,-,N/A,,Overcast,100,2012-10-22 11:35:00
7:15 AM,54.0,51.8,92,29.93,7.0,East,4.6,-,N/A,,Scattered Clouds,90,2012-10-22 12:15:00
7:35 AM,54.0,51.8,92,29.93,5.0,East,4.6,-,N/A,,Mostly Cloudy,80,2012-10-22 12:35:00
7:55 AM,54.9,52.5,92,29.94,5.0,ESE,3.5,-,N/A,,Overcast,110,2012-10-22 12:55:00
8:15 AM,56.5,54.1,92,29.95,5.0,Calm,Calm,-,N/A,,Overcast,0,2012-10-22 13:15:00
8:35 AM,56.5,54.1,92,29.95,5.0,Calm,Calm,-,N/A,,Overcast,0,2012-10-22 13:35:00
8:55 AM,56.7,54.3,92,29.95,5.0,East,4.6,-,N/A,,Overcast,80,2012-10-22 13:55:00
9:15 AM,56.5,54.0,91,29.94,5.0,East,5.8,-,N/A,Thunderstorm,Overcast,90,2012-10-22 14:15:00
9:35 AM,59.0,57.2,94,29.94,5.0,East,5.8,-,N/A,,Overcast,90,2012-10-22 14:35:00
9:55 AM,59.0,57.2,94,29.93,5.0,East,6.9,-,N/A,Thunderstorm,Overcast,100,2012-10-22 14:55:00
10:15 AM,59.0,56.3,91,29.95,4.0,Calm,Calm,-,0.02,Rain-Thunderstorm,Heavy Thunderstorms and Rain,0,2012-10-22 15:15:00
10:35 AM,59.0,57.2,94,29.94,1.2,Calm,Calm,-,N/A,Rain-Thunderstorm,Heavy Thunderstorms and Rain,0,2012-10-22 15:35:00
10:55 AM,59.0,56.8,93,29.94,1.0,NE,5.8,-,0.42,Rain-Thunderstorm,Thunderstorms and Rain,50,2012-10-22 15:55:00
11:15 AM,59.0,57.2,94,29.92,1.8,ENE,4.6,-,0.01,Rain-Thunderstorm,Light Thunderstorms and Rain,70,2012-10-22 16:15:00
11:35 AM,59.0,57.2,94,29.91,3.0,ENE,5.8,-,0.01,Thunderstorm,Unknown,70,2012-10-22 16:35:00
11:55 AM,61.7,59.5,93,29.93,4.0,East,3.5,-,0.01,,Overcast,80,2012-10-22 16:55:00
12:15 PM,61.7,59.4,92,29.94,3.0,ESE,4.6,-,N/A,,Overcast,110,2012-10-22 17:15:00
12:35 PM,61.2,59.0,93,29.93,3.0,East,3.5,-,N/A,,Overcast,90,2012-10-22 17:35:00
12:55 PM,61.3,59.2,93,29.93,2.5,Calm,Calm,-,N/A,,Overcast,0,2012-10-22 17:55:00
1:15 PM,61.0,58.8,93,29.92,2.5,Calm,Calm,-,N/A,,Overcast,0,2012-10-22 18:15:00
1:35 PM,61.7,59.4,92,29.92,3.0,Calm,Calm,-,N/A,,Overcast,0,2012-10-22 18:35:00
1:55 PM,61.7,59.4,92,29.91,3.0,Calm,Calm,-,N/A,,Overcast,0,2012-10-22 18:55:00
2:15 PM,61.7,59.4,92,29.91,3.0,North,4.6,-,N/A,,Overcast,360,2012-10-22 19:15:00
2:35 PM,61.7,59.4,92,29.91,1.2,NNE,4.6,-,N/A,Rain,Rain,20,2012-10-22 19:35:00
2:55 PM,61.7,59.5,93,29.91,1.2,NNE,4.6,-,0.01,,Overcast,20,2012-10-22 19:55:00
3:15 PM,61.7,59.5,93,29.90,1.0,North,4.6,-,0.01,Rain,Rain,360,2012-10-22 20:15:00
3:35 PM,60.3,58.3,93,29.91,0.8,NNE,4.6,-,0.02,,Drizzle,30,2012-10-22 20:35:00
3:55 PM,60.8,59.0,94,29.89,0.8,NE,5.8,-,0.02,Thunderstorm,Overcast,50,2012-10-22 20:55:00
4:15 PM,61.7,59.9,94,29.89,0.8,NNE,5.8,-,N/A,Rain,Light Rain,30,2012-10-22 21:15:00
4:35 PM,61.2,59.4,94,29.90,0.5,NNE,5.8,-,N/A,Fog,Fog,30,2012-10-22 21:35:00
4:55 PM,62.6,60.8,94,29.90,0.5,NE,3.5,-,N/A,Fog,Fog,50,2012-10-22 21:55:00
5:15 PM,61.7,59.9,94,29.90,0.5,NE,3.5,-,N/A,Fog,Fog,40,2012-10-22 22:15:00
5:35 PM,61.7,59.9,94,29.90,0.5,NE,3.5,-,N/A,Fog,Fog,50,2012-10-22 22:35:00
5:55 PM,61.7,59.9,94,29.91,0.2,Calm,Calm,-,N/A,Fog,Fog,0,2012-10-22 22:55:00
6:15 PM,61.7,59.9,94,29.91,0.5,Calm,Calm,-,N/A,Fog,Fog,0,2012-10-22 23:15:00
6:35 PM,61.7,59.9,94,29.92,0.5,Calm,Calm,-,N/A,Fog,Fog,0,2012-10-22 23:35:00
6:55 PM,61.2,59.4,94,29.93,0.5,Calm,Calm,-,N/A,Fog,Fog,0,2012-10-22 23:55:00
7:15 PM,60.3,58.5,94,29.93,0.2,Calm,Calm,-,N/A,Fog,Fog,0,2012-10-23 00:15:00
7:35 PM,60.8,59.0,94,29.92,0.2,Calm,Calm,-,N/A,Fog,Fog,0,2012-10-23 00:35:00
7:55 PM,61.3,59.5,94,29.92,0.2,NE,3.5,-,N/A,Fog,Fog,50,2012-10-23 00:55:00
8:15 PM,60.6,58.8,94,29.92,0.2,NNE,3.5,-,N/A,Fog,Fog,20,2012-10-23 01:15:00
8:35 PM,61.7,59.9,94,29.92,0.2,ENE,3.5,-,N/A,Fog,Fog,70,2012-10-23 01:35:00
8:55 PM,60.6,58.8,94,29.93,0.2,Calm,Calm,-,N/A,Fog,Fog,0,2012-10-23 01:55:00
9:15 PM,60.4,58.6,94,29.92,0.2,Calm,Calm,-,N/A,Fog,Fog,0,2012-10-23 02:15:00
9:35 PM,60.6,58.8,94,29.93,0.2,NNE,3.5,-,N/A,Fog,Fog,30,2012-10-23 02:35:00
9:55 PM,60.8,59.0,94,29.93,0.2,NE,3.5,-,N/A,Fog,Fog,40,2012-10-23 02:55:00
10:15 PM,60.4,58.6,94,29.92,0.2,NNE,3.5,-,N/A,Fog,Fog,30,2012-10-23 03:15:00
10:35 PM,60.8,59.0,94,29.93,0.2,ENE,3.5,-,N/A,Fog,Fog,60,2012-10-23 03:35:00
10:55 PM,61.3,59.5,94,29.93,0.2,NE,3.5,-,N/A,Fog,Fog,50,2012-10-23 03:55:00
11:15 PM,61.3,59.5,94,29.93,0.2,ENE,4.6,-,N/A,Fog,Fog,60,2012-10-23 04:15:00
11:35 PM,60.8,59.0,94,29.93,0.2,ENE,3.5,-,N/A,Fog,Fog,60,2012-10-23 04:35:00
11:55 PM,60.3,58.5,94,29.92,0.2,NNE,4.6,-,N/A,Fog,Fog,30,2012-10-23 04:55:00